Flag for Netherlands Weather past 2 weeks in Amersfoort, Netherlands

Now
45 °F

Fog.


Feels Like: 41 °F
Forecast: 45 / 62 °F
Wind: 7 mph from Southwest

Location: Deelen

Current Time: May 30, 2015 at 5:01:19 AM

Latest Report: May 30, 2015 at 4:25 AM


Visibility: 4 mi

Pressure: 29.77 "Hg

Humidity: 93%

Dew point: 43 °F

Location of AmersfoortLocation

Historic Weather in Amersfoort — Graph

°F

Amersfoort temperature yesterday

Maximum temperature yesterday: 61 °F (at 2:25 PM)
Minimum temperature yesterday: 39 °F (at 12:55 AM)
Average temperature yesterday: 51 °F

Past Weeks' High & Low Weather Summary

 TemperatureHumidityPressure
High66 °F (May 22, 12:55 PM)100% (May 16, 12:55 PM)30.33 "Hg (May 16, 12:55 PM)
Low34 °F (May 21, 5:55 AM)32% (May 24, 6:55 PM)29.59 "Hg (May 19, 2:25 AM)
Average52 °F73%30.04 "Hg
* Reported May 15 3:25 AM — May 30 3:55 AM, Amersfoort, Weather by CustomWeather, © 2015

Note: Actual official high and low records may vary slightly from our data, if they occured in-between our weather recording intervals... More about our weather records

Advertising

Amersfoort weather history for previous 24 hours

 ConditionsComfort  
Time TempWeatherWind HumidityBarometerVisibility
3:55 AM
Sat, May 30
43 °FFog.6 mph100%29.77 "Hg4 mi
3:25 AM43 °FFog.6 mph100%29.77 "Hg6 mi
2:55 AM45 °FPassing clouds.7 mph93%29.77 "HgN/A
2:25 AM45 °FPassing clouds.7 mph93%29.77 "HgN/A
1:55 AM45 °FMostly cloudy.6 mph93%29.77 "HgN/A
1:25 AM45 °FPassing clouds.6 mph93%29.74 "HgN/A
12:55 AM46 °FMostly cloudy.9 mph93%29.74 "HgN/A
12:25 AM48 °FPartly cloudy.13 mph87%29.74 "HgN/A
11:55 PM
Fri, May 29
48 °FDrizzle. Mostly cloudy.7 mph94%29.74 "HgN/A
11:25 PM48 °FPartly cloudy.9 mph94%29.74 "HgN/A
10:55 PM48 °FDrizzle. Mostly cloudy.12 mph87%29.74 "HgN/A
10:25 PM48 °FPartly sunny.10 mph87%29.71 "HgN/A
9:55 PM48 °FBroken clouds.13 mph87%29.71 "HgN/A
9:25 PM48 °FLight rain. Mostly cloudy.13 mph94%29.71 "HgN/A
8:55 PM50 °FDrizzle. More clouds than sun.14 mph82%29.71 "HgN/A
8:25 PM50 °FDrizzle. Partly sunny.12 mph88%29.71 "HgN/A
7:55 PM50 °FDrizzle. Overcast.14 mph88%29.71 "HgN/A
7:25 PM55 °FDrizzle. Cloudy.17 mph72%29.68 "HgN/A
6:55 PM55 °FDrizzle. Mostly cloudy.12 mph72%29.68 "HgN/A
6:25 PM54 °FLight rain. Mostly cloudy.12 mph77%29.71 "HgN/A
5:55 PM57 °FDrizzle. More clouds than sun.16 mph63%29.71 "HgN/A
5:25 PM59 °FBroken clouds.14 mph55%29.71 "HgN/A
4:55 PM57 °FMostly cloudy.14 mph59%29.71 "HgN/A
4:25 PM57 °FDrizzle. Cloudy.13 mph59%29.71 "HgN/A
3:55 PM59 °FMostly cloudy.15 mph51%29.74 "HgN/A
3:25 PM59 °FOvercast.16 mph51%29.74 "HgN/A
2:55 PM61 °FOvercast.16 mph48%29.74 "HgN/A
2:25 PM61 °FPartly sunny.16 mph48%29.74 "HgN/A
1:55 PM59 °FBroken clouds.17 mph55%29.74 "HgN/A
1:25 PM59 °FBroken clouds.18 mph55%29.77 "HgN/A
12:59 PM59 °FBroken clouds.16 mph55%29.77 "HgN/A
12:25 PM57 °FBroken clouds.16 mph63%29.77 "HgN/A
11:55 AM59 °FPartly sunny.16 mph59%29.80 "HgN/A
11:25 AM57 °FPassing clouds.13 mph63%29.80 "HgN/A
10:55 AM55 °FScattered clouds.15 mph72%29.80 "HgN/A
10:25 AM55 °FScattered clouds.12 mph72%29.83 "HgN/A
9:55 AM55 °FCool.12 mph72%29.83 "HgN/A
9:25 AM54 °FPassing clouds.10 mph77%29.83 "HgN/A
8:55 AM52 °FScattered clouds.10 mph82%29.83 "HgN/A
8:25 AM52 °FPartly sunny.8 mph77%29.83 "HgN/A
7:55 AM50 °FPartly sunny.8 mph82%29.83 "HgN/A
7:25 AM50 °FPartly sunny.8 mph82%29.86 "HgN/A
6:55 AM48 °FOvercast.6 mph82%29.86 "HgN/A
6:25 AM46 °FMostly cloudy.2 mph87%29.86 "HgN/A
5:55 AM46 °FOvercast.2 mph87%29.86 "HgN/A
5:25 AM46 °FPassing clouds.3 mph87%29.86 "HgN/A
Weather by CustomWeather, © 2015

See weather overviewHow to use our weather pages